TIMESTAMP,CO2_1_1_1,H2O_1_1_1,TAU_1_1_1,TAU_SSITC_TEST_1_1_1,H_1_1_1,H_SSITC_TEST_1_1_1,LE_1_1_1,LE_SSITC_TEST_1_1_1,FC_1_1_1,FC_SSITC_TEST_1_1_1,WD_0_0_1,WS_0_0_1,WS_MAX_0_0_1,U_SIGMA_0_0_1,V_SIGMA_0_0_1,W_SIGMA_0_0_1,USTAR_0_0_1,MO_LENGTH_0_0_1,ZL_0_0_1,FETCH_MAX_0_0_1,FETCH_70_0_0_1,FETCH_80_0_0_1,FETCH_90_0_0_1,PA_0_0_1,RH_0_0_1,TA_0_0_1,VPD_0_0_1,T_SONIC_0_0_1,T_SONIC_SIGMA_0_0_1
[yyyymmddHHMMSS],[mmolCO2 mol-1],[mmolH2O mol-1],[kg m-1 s-2],[#],[W m-2],[#],[W m-2],[#],[umolCO2 m-2 s-1],[#],[Decimal degrees],[m s-1],[m s-1],[m s-1],[m s-1],[m s-1],[m s-1],[m],[#],[m],[m],[m],[m],[kPa],[%],[deg C],[hPa],[deg C],[deg C]
20240112003000,424.02641774340884,4.5767853310483542,8.0990820342108485E-002,1,-8.2005126072149768,0,-0.10481065305983295,0,0.28180931013422539,0,114.97682642973676,1.5777545349168935,3.2658510663442475,0.44430025312983523,0.36160435020702142,0.28236213393990789,0.25831295339254651,175.01703658966224,0.10856085996100265,116.60755342988223,213.19579774152191,255.14091893008526,319.40615437763250,93.861326198368360,96.286529681926993,-4.2142187658457715,0.16572122346910306,-2.9082372606449667,6.7215720619681174E-002
20240112010000,424.37563526866080,4.5761477377605457,0.11587652291095778,1,-10.952544945208725,0,-0.30667776346659320,1,0.36390286158324842,1,120.74683911250050,1.5629136353946920,3.2284205325189697,0.58841943385619566,0.41155635722982054,0.31705825249199626,0.30891458273437061,224.17158681771849,8.4756504023186241E-002,122.63498398760856,224.21586315142520,268.32912266176118,335.91622048050505,93.890922190538205,96.474965571615684,-4.2378624411688861,0.15703224935703192,-2.9363827531602169,7.0728977429757492E-002
20240112013000,424.70869668126807,4.5731376662549392,7.8193913350264932E-002,0,-9.0760252462614712,0,-0.25395338009551954,0,-7.2253188670386255E-003,2,125.82573373643933,1.6546169376614706,3.6281823113625782,0.51998613421229412,0.49434333051428603,0.31180743990191689,0.25373746864630747,149.92750747070960,0.12672791217923710,106.18261174219758,194.13567947181454,232.33082538337683,290.85062400132057,93.903976240885413,96.533873950639929,-4.2528685913085837,0.15423372728207199,-2.9673411636352398,7.2395879098460084E-002
20240112020000,425.13358026354859,4.5880092681235691,7.7217490436602101E-002,0,-10.340088033426751,0,3.3001797590470207E-002,2,0.33643496652614563,0,138.28225791987072,1.5288720845825463,3.4112663182319465,0.53048396365273753,0.43781041054391479,0.30732540999865410,0.25212447148044420,129.13522029205276,0.14713259447755245,106.87303056708046,195.39798528149078,233.84148304015693,292.74178812645050,93.934118690321185,96.630921188249232,-4.2188140174017690,0.15030006956332501,-2.9622065853542381,6.9045521000338755E-002
20240112023000,425.68546437109444,4.6103479430130481,5.1586642825946875E-002,0,-8.4173131549218407,0,8.7343487615278333E-003,1,0.39814507639191704,0,145.64094059396518,1.1962265729706418,3.2525902558626787,0.47451034757054888,0.40059427588397145,0.29301605652203977,0.20607168928626898,86.624399833539613,0.21933773898013775,94.483599369895742,172.74615364662338,206.73302593174532,258.80521663326164,93.944154523003476,96.986076898718537,-4.2015983479817578,0.13463027076563491,-3.0098336224025957,5.9017589805844269E-002
20240112030000,426.31261309555589,4.6268610982595506,2.0293304664810954E-002,0,-5.8686233262136218,0,-0.25666655521164383,1,0.18061867596625800,1,177.45805184800389,0.83293855592161703,2.0724000757229906,0.34303770867017813,0.31815872803768541,0.20321283229919654,0.12924420636922898,30.657003470887307,0.61976050653622738,63.180095824844102,525.00000000000000,934.00000000000000,2389.0000000000000,93.966147601996539,97.044076300722409,-4.1589025743272146,0.13246420951220159,-3.0038057140773731,5.6472324539206968E-002
20240112033000,426.85961696911943,4.6228364781350297,2.4580371646755868E-002,0,-6.2950576929838160,0,-1.2755087868322947,0,7.2882381215222961E-002,2,181.76399408449396,0.97384225355635534,3.8009154970344219,0.56106399148351382,0.38587831491389940,0.23837359693631366,0.14223411433630553,38.097846980472518,0.49871584632429922,72.019253725812547,615.00000000000000,1104.0000000000000,2863.0000000000000,93.983221795355902,96.845124354738417,-4.1407686564127744,0.14157280078772488,-2.9884385757446239,6.9894106358467559E-002
20240112040000,426.44904798200150,4.4461314227959372,8.6473455105740407E-002,0,-16.573435567875318,0,0.89630627178973210,2,1.2095876931898406,0,189.65013873294868,1.4727269733504704,4.0547219565698223,0.62541719626813952,0.56423880434208551,0.33923404532046281,0.26664928119983500,95.350548864754543,0.19926471558071099,103.27796896053952,188.82506607864264,225.97537750133625,282.89435741788668,93.995077209201398,94.630518695966117,-4.3495731540256202,0.23719470945625404,-3.0373621419270762,8.8590657228754255E-002
20240112043000,426.44915595878956,4.3872844652813363,7.0708223577232679E-002,0,-6.7907321446748741,1,-0.29060095931680135,2,0.60363347223819996,0,218.37679982318099,1.3617864971464719,3.3801618695563431,0.50355750761894535,0.51787304426048431,0.34234079027104425,0.24098424580422517,171.82774853698351,0.11057585379412986,94.553781458904780,172.87446888876116,206.88658650441414,258.99745624808253,94.035838839459345,94.702522051513043,-4.5306571089281533,0.23084118190192157,-3.2887093585286493,0.10340673880341741
20240112050000,426.48491379968556,4.3208361409211928,5.0058816032979202E-002,0,-3.5219379022442725,1,-0.70458968120204546,1,0.33225549087828316,0,222.58790933328754,1.2651474371856135,3.5875141224869780,0.54452375186233026,0.39567643789916052,0.28801008052962579,0.20263106722576174,197.02293090576015,9.6435475366509829E-002,94.513440853884177,172.80071339680740,206.79832001796098,258.88695708112550,94.078956347900458,94.918517119106724,-4.7568587404650202,0.21767887745816780,-3.5235790077796310,7.3301448200855809E-002
20240112053000,426.43306182373226,4.2667619126621172,8.8867235451340329E-002,0,-6.1614826839203536,0,1.7674027863697503,1,0.85721953292100583,0,213.67323484471237,1.3826851658304438,4.1038966833161510,0.64230938919958369,0.46330122307111632,0.33931068521987645,0.26987381857984216,266.11150689999863,7.1398641198706078E-002,104.25706007041684,190.61515689259187,228.11765901006021,285.57623965443747,94.106466797526110,94.708145099144161,-4.8901771634429565,0.22441658741342393,-3.6836181059030650,7.2031461522304191E-002
20240112060000,426.44191289971644,4.1825032512221272,9.7248226765969795E-002,0,-2.6939561524383833,0,-0.52484881804815542,0,0.46164169262076005,0,217.55168258516642,1.5658958308901112,4.5326360149842531,0.69022265020757656,0.62020190768354611,0.38963304727577297,0.28220573530596094,695.95786441856887,2.7300503337042339E-002,96.734845050759617,176.86214874922652,211.65882082974377,264.97172732946939,94.111348184895832,94.125546222687348,-5.0713910734388605,0.24572805486426888,-3.9213298424614322,0.15502930619362565
20240112063000,427.97042081400474,4.0700785778696789,0.16917913887970107,0,-2.9680134649264214,1,0.39385446458586576,2,-0.20761390607173252,1,239.73831468567622,2.0043928486553413,4.5006086276868151,0.77259472517697481,0.54154119082097885,0.38709030610478351,0.37186816148389640,1445.2470610218952,1.3146541177925394E-002,121.25963615337344,221.70128866574962,265.31981923369244,332.14892968549833,94.103822982855903,95.241148491685749,-5.5863403761121617,0.19142738646881186,-4.5520725529988795,0.16471100764431637
20240112070000,428.90700260797820,4.0066008601561816,0.13651915338913931,1,5.7966067291720451,1,2.3834186005622171,1,-0.17362520300349860,2,249.17638719383282,1.4694376195058108,3.6006574847155632,0.58426538946293094,0.52743601210101987,0.39132494377279298,0.33381115998037392,-535.28835564225119,-3.5494887568034927E-002,110.26192140272678,201.59395856034871,241.25648058129366,302.02448515233635,94.111140768671177,96.345213167039489,-5.9427283700276803,0.14307557719348779,-4.9970433560124548,0.11272177097886879
20240112073000,429.25924844758561,3.9389060292598419,8.0931712901231370E-002,1,6.4453695742500061,1,4.9511476562251566,1,0.22298092093179384,0,234.50213775848599,1.3705746928512508,3.3158132191754479,0.48230155197567631,0.40396519613149923,0.32653070963714237,0.25691303415383021,-219.44419906183111,-8.6582375297359834E-002,103.35811604458813,188.97160050988489,226.15074179011731,283.11389269795706,94.099073451086582,96.498534010025352,-6.1881874926342562,0.13452612824441532,-5.2844862572417242,8.9614600486215792E-002
20240112080000,429.47854559339589,3.8832931839247107,4.0445323432927206E-002,0,-0.78565670169461810,1,0.54960888342957659,1,0.48529829864398832,1,285.14825864054080,0.67237923681314937,2.0219335159899727,0.38733620022070492,0.56692816383026112,0.19295097151458568,0.18160977402073838,635.76162456902853,2.9885415013653525E-002,28.672931494390145,178.00000000000000,292.00000000000000,647.00000000000000,94.068826608723967,95.886616187646084,-6.2950597398545938,0.15674858476379824,-5.4557006683349414,4.0732163562232727E-002
20240112083000,429.68250835580892,3.9001498661843046,1.8995229681228402E-002,0,-1.7530187979166125,0,0.19540312826134065,1,0.15753524581109069,0,304.93610264970596,1.0093950236949010,1.9514869014974128,0.34162034336419078,0.25387136464764670,0.16969795767465370,0.12448119686923687,91.739996208900010,0.20710705019798928,96.600545396204993,823.00000000000000,1475.0000000000000,3819.0000000000000,94.045549842230898,96.086296576561494,-6.2688893602158942,0.14943849391542871,-5.4802260555691191,3.6603536486787047E-002
20240112090000,430.04186137356015,3.9206843998271395,3.4145605470635387E-002,1,-0.67149692432677688,2,0.83719374515989919,2,1.2112340205622503,1,310.27639878019147,0.44503146772162416,1.4688322355554653,0.30056859533900021,0.18885722639734207,0.17028210402094440,0.16689802163559583,577.25199386921997,3.2914567990742306E-002,15.267030662814348,94.000000000000000,154.00000000000000,340.00000000000000,94.051725834635420,96.463492478057702,-6.2506130260891268,0.13522492140167175,-5.5265209782917850,3.4888462420216995E-002
20240112093000,430.11859495924466,3.9051523420736842,1.8925498574504228E-002,0,-0.37226675959611472,2,0.84339779826954897,1,0.25487664693338741,0,319.91644667554749,0.99679132430504869,2.5356193163557377,0.31100697350234352,0.29406880666984653,0.14237869957514881,0.12427090789498618,429.70631850506368,4.4216245332627344E-002,100.00736937237252,669.00000000000000,1122.0000000000000,2584.0000000000000,94.010164778862844,96.334582738695119,-6.2907696821424679,0.13972382749099838,-5.6046723971896313,3.9199616111314492E-002
20240112100000,430.02829846884015,3.8898415551617194,0.14035263903970865,0,-1.2648380701979576,2,0.52727306084810399,1,0.23760077828989126,1,334.83419662664238,1.9235164531585427,5.0844714008220135,0.86714590233469913,0.57159163704448102,0.37678040353283687,0.33842420754402980,2552.4696853559963,7.4437710696454544E-003,114.90882685082104,210.08998377394349,251.42405284684946,314.75307910079573,93.917991886284725,97.744173836377300,-6.5443330213759054,8.4335794025681143E-002,-5.8344449352687775,0.13881151571923836
20240112103000,429.30406176381285,3.7330626655607118,0.22317498201809047,0,-0.58393196563119898,2,-6.9331246004021905,1,-0.20315177039501864,2,344.00191465466747,2.1934922503685055,5.7156181478878816,0.96451587109864967,0.68002307026796616,0.42126067165498521,0.42624169964519681,11045.769230209668,1.7201156029981034E-003,126.39762540385701,231.09517169325767,276.56189798641702,346.22267825031491,93.915775811197904,98.427935570886703,-7.1699793785942347,5.6010864369798699E-002,-6.4770048845078918,0.18636558014596216
20240112110000,428.85898448437820,3.6465569490931000,0.11908806607364879,1,1.8327043685954199,0,0.18328832546755564,0,0.17417508037878901,0,9.8112493171757080,1.0930738472799251,3.7818142930444281,0.57086941309024031,0.62836782128925261,0.36344197893471258,0.31110744464484830,-1369.1795125982856,-1.3876923971746984E-002,110.56945066588383,202.15622013482769,241.92936408233516,302.86685544837934,93.987921092230906,97.900409302237961,-7.3940861206054365,7.3522735269141895E-002,-6.7059533445569741,5.4332570866545409E-002
20240112113000,428.76719239144495,3.6701030008797866,7.0622837279839548E-002,0,-2.4463909762013234,0,5.6044219515154023E-002,0,0.14194642344900807,0,37.327494531924430,1.2329212904770299,3.3380945460004185,0.59432043767755516,0.39410659783119051,0.28506518104230683,0.23958730570518658,468.59352862740900,4.0546868104760783E-002,108.96088033867110,199.21524054949001,238.40976265535289,298.46073211289632,94.020379735243068,97.749929505817263,-7.2863859541150759,7.9450457951484740E-002,-6.6199934972127039,5.6309049803215099E-002
20240112120000,428.70232446438490,3.7048611765347585,0.14467350661445658,1,-0.52128989014862603,1,-0.95380603533429542,1,0.25790744152310785,0,28.138908228511895,1.2519764388522674,3.3243527124532419,0.61635270035401157,0.38343545958737546,0.33830488726934344,0.34306504304759844,6454.1612909415771,2.9438371840298633E-003,126.62208378906472,231.50555320874761,277.05301984755698,346.83750454182194,93.976764982133432,97.821048235580250,-7.1796902411221595,7.7575433935265323E-002,-6.5262303765766774,5.3642634427645081E-002
20240112123000,428.70464320371502,3.7236805526886236,5.4824267368593770E-002,0,-0.51189771979022103,0,-7.6947493891358715E-002,1,-5.1717195925128304E-003,2,13.596494270372887,1.1244791630009980,2.8411151749380106,0.48428682604769063,0.31010872989962313,0.23721305590057865,0.21125059148682424,1534.3253285165706,1.2383292934601909E-002,114.12541663581966,208.65766004504792,249.70992716394628,312.60719715135406,93.951153844401034,97.654198201496456,-7.0953859558105137,8.4060391907189003E-002,-6.4816253068711944,6.1027163793272776E-002
20240112130000,428.72638788566547,3.7274616753278575,4.2306870770765941E-002,0,0.99729085465972389,0,0.51828204668166655,1,-2.6836817644077211E-002,2,10.143872135542296,1.4561986231195683,4.1545651825593835,0.71818639722398603,0.47548469220191220,0.30587557581863833,0.18560678654035309,-533.99654649309866,-3.5580754453897120E-002,111.50212306504663,514.00000000000000,781.00000000000000,1514.0000000000000,93.912285038845468,97.835577440732052,-7.1116583548651420,7.7463535223250238E-002,-6.4850940636528662,6.7528997536388705E-002
20240112133000,428.71483126526596,3.7253597754438403,0.10269036492890754,0,1.3036757174990976,2,-1.5105185336720985,1,0.42130123015296850,1,356.32698538323416,1.4168759530718296,4.2492865759874245,0.72031807007628479,0.61451611923356630,0.36018737671993389,0.28929232083860479,-1545.7155749735105,-1.2292041503383059E-002,105.07554074518302,192.11160060708693,229.90851993925318,287.81818502649838,93.824486156901031,97.867043372843185,-7.1352739851209890,7.6198505059217048E-002,-6.5104592395358623,9.4852424659871190E-002
20240112140000,428.61559689920966,3.7122989328725930,0.13286993223056284,0,4.5752556107390410,0,0.40208900210339288,1,0.35221486426946597,0,355.18617823103546,1.8889931015925667,4.3842279389574612,0.67105673411805022,0.56586614545994363,0.40876943895165707,0.32911850903293177,-648.18487680230874,-2.9312624653837535E-002,105.28197181146308,192.48902243405865,230.36019747125869,288.38363169856353,93.755001360677085,98.311040385248759,-7.2490659171210154,5.9809591654292261E-002,-6.5662924058702288,9.4997757811342121E-002
20240112143000,428.45331475717774,3.6913189365426708,0.10878385228871194,0,9.7843306854283831,1,1.0377065912249424,1,0.20961931930715988,0,357.05268945384563,2.1768146058048790,5.5526743404375516,0.75988103237475524,0.57575914936034256,0.37698131515907934,0.29774740799820415,-224.42394777597369,-8.4661196758584495E-002,103.67580859458938,189.55244381412919,226.84586287584784,283.98410181122296,93.755251722745285,98.412895069010304,-7.3358368708730382,5.5827385199638119E-002,-6.6689728478711459,0.12178575222597995
20240112150000,428.35597365125136,3.6424846472103725,0.11135101275721035,0,11.790124818177398,0,0.50086577871545490,1,0.27812763213386965,1,359.44167529649519,2.3078645746719366,5.3856698142522328,0.77525917930189436,0.62088415632115690,0.41584053728374143,0.30109266519157574,-192.64496255392021,-9.8627027398559719E-002,96.710489604217301,176.81761922517592,211.60553036245432,264.90501398809988,93.792502857421880,98.280939323447583,-7.4856345918443026,5.9772888265730448E-002,-6.8838343488905025,0.11785986768325420
20240112153000,428.19841160041670,3.6566908812243080,0.13984026941954028,0,7.9678941183672434,0,0.78203473731845341,1,9.6233662213519103E-002,1,6.2859107447168583,2.0802697248197610,4.9122172387305314,0.77191163253939055,0.58926844522582256,0.41484178308881803,0.33751396623471047,-401.42834328233698,-4.7330987753988044E-002,106.16522995921690,194.10390002889051,232.29279350677970,290.80301260484765,93.762131618272576,98.157172444072927,-7.4231862614949478,6.4386506021476178E-002,-6.8850216259426134,0.10339672548969142
20240112160000,428.02222440820475,3.7045172162196649,0.25843552640221945,0,8.1852621651344677,1,-2.3138073284698435,1,0.47638420059638742,1,13.722981933470038,2.5188825121222034,5.7239152837550025,1.0255038815697644,0.68135683036220063,0.50923367421161680,0.45921607501004552,-983.56136377656151,-1.9317554246992854E-002,115.27493179572701,210.75934037641503,252.22510174394623,315.75589726404081,93.672184645399312,97.918602030795668,-7.2358812789916556,7.3781701738148520E-002,-6.7573344718084627,0.13639686830444359
20240112163000,427.71624707102893,3.8099093201107146,0.23828185654203177,0,11.855795356244746,1,3.0211349172538600,1,0.16393095378902464,1,13.273018081289621,2.1886939682220357,5.6642524821508342,0.95226451405946100,0.56127713578058958,0.44671363488892801,0.44131668381580713,-602.66199472853691,-3.1526793071725651E-002,124.00289085236926,226.71683317172599,271.32214501940524,339.66312930732221,93.660602206885827,97.617724156640662,-6.8334668505918899,8.7106674291061947E-002,-6.2701569648011173,0.22406786354599803
20240112170000,427.43057365546116,3.9150836210877245,0.18420751928208431,0,1.0025788708044807,2,-0.35181230122509699,2,0.42313546290718840,0,14.978561007191445,2.5936772056122486,6.5354489943627900,0.99502618929074838,0.60669434287444435,0.45256986393187515,0.38836228740069079,-4855.5735542145039,-3.9130289733760749E-003,110.78884504235219,202.55734302725938,242.40940573635964,303.46781063540311,93.626067021106607,97.573624959224418,-6.4778294466187276,9.1175843976960214E-002,-5.8131752936878911,0.12334078442085895
20240112173000,427.17156869143224,3.9937383069117440,0.15219883890840322,0,2.8550447650523560,1,1.5234418160199996,1,0.17877705061432769,0,5.2640858762169955,2.4166826125399394,5.7566233514961782,0.84333738395187863,0.74631103924038666,0.46540510194833351,0.35336366728270718,-1283.4792842661257,-1.4803511231475712E-002,100.45406198692432,183.66206349193834,219.79658205431144,275.15923872075206,93.529984996093731,97.546030688457421,-6.2278925052218597,9.3995372493500901E-002,-5.5644862713283487,7.9708709279598958E-002
20240112180000,427.30763219983311,4.0220956706995530,0.21232639463590089,0,4.5081616580202786,0,0.21890734254024793,2,5.2695149110753833E-002,2,3.4415156339821635,2.3948145381439843,6.6891421320542275,0.92183994768354671,0.73590711679305965,0.47811799033737040,0.41771669150376173,-1341.6225261556133,-1.4161956608200400E-002,112.39119662200422,205.48695275868829,245.91540035211429,307.85689985787212,93.423167641493052,97.087951862652176,-6.0887783932155912,0.11273445633793244,-5.4572275365193263,9.0960108590577640E-002
20240112183000,427.48654914470870,4.0214146797620822,0.28422907807194880,0,8.5732844865118931,0,1.0886535290876822,1,0.21421416894359535,0,8.0511102690944369,2.5408375918934181,7.6561223561469545,1.1239551169816944,0.72068318239476870,0.51216264382800136,0.48352740049525883,-1093.4417625447802,-1.7376325517127745E-002,119.58190085614807,218.63385345619301,261.64888272173721,327.55335278170367,93.331436462022552,97.033319948150464,-6.0964816470675487,0.11478182057733420,-5.4299275826347753,7.9418930096309806E-002
20240112190000,427.04729199042782,4.0850466154670020,0.26954427196454528,0,-7.3543608414780604,2,-4.5894474961328813,1,1.3332061706424427,1,9.2878310884278790,2.9430705424330621,8.1014005776644460,1.1804228839684017,0.80999783422951976,0.60542574035236740,0.47117222296732553,1178.6466824949314,1.6120182818299078E-002,102.45895880476760,187.32765430399976,224.18335805139236,280.65096171532070,93.242721143880189,97.865538766967390,-6.0152377031114383,8.3097300462245588E-002,-5.2182713818019693,0.13160997809287198
20240112193000,426.12962026402317,4.1910627910753986,0.37897163886326357,0,2.1214007827375645,1,-0.41566659613189705,1,0.78314303021991305,0,12.981261654971576,3.0670048489663428,8.4602446661261350,1.3035950480894272,0.90379321209665819,0.64518484450750679,0.55912565944118886,-6825.6561586886564,-2.7836151658202301E-003,111.66449669493498,204.15831352295137,244.32535852613293,305.86635617297043,93.194835242187523,98.290778255371578,-5.7430072733561133,6.7938839969408499E-002,-4.8674991857740224,0.12339487971566726
20240112200000,425.09112015026312,4.2707762157395841,0.35795947635351366,0,-4.3296548420437588,1,-1.5239704995305197,1,1.7080871956418147,1,12.682176453253959,3.3456314179098663,8.8667515561048234,1.3504143537144364,0.89721276076058065,0.66951997307560718,0.54376293684928212,3075.1861948722512,6.1784876739111707E-003,106.01608244264550,193.83121080043733,231.96645414612200,290.39447445014150,93.149907875270870,98.478786959173490,-5.5269984206352092,6.1468564903288440E-002,-4.6044948673899739,9.6236173984820234E-002
20240112203000,424.08591634432815,4.3127308194459752,0.39168797945500727,0,-1.1330480339058830,2,1.2992071833363479,2,0.21646732100522287,2,7.6926338264020728,3.9336931087063518,8.8982384267178176,1.3973882042497667,1.0207029146340136,0.76041282408077726,0.56905993082102246,13462.585555366259,1.4113187932481884E-003,99.298287617144950,181.54893932865258,217.26771213030031,271.99339366251195,93.090943915798604,98.878960215964938,-5.4601098904079777,4.5529554420886027E-002,-4.4816004100375721,0.10289646615904148
20240112210000,423.48453026405150,4.3332228469035021,0.39158091478856449,0,-2.1015933889834333,0,0.44983778558349380,1,0.29009935579524304,2,6.5175006220115677,3.7367755191720811,9.3744934877691648,1.3394220172613580,1.0221006362625551,0.73195432971853203,0.56914947022017381,7259.5439334127750,2.6172443027103402E-003,102.38793434152197,187.19779893309601,224.02795433794509,280.45641470696017,93.053305189670155,98.953788096554518,-5.4130240571763579,4.2642881139032626E-002,-4.4534530465867306,9.9164270170866348E-002
20240112213000,423.10777308805564,4.3406758620155870,0.47276959435733140,0,-2.8607831518953111,1,0.10128963194501105,2,0.61613026468918686,1,5.6836943933447230,3.8454037043285862,11.318633859657270,1.5328907267654368,1.1550239981342008,0.81012018160552635,0.62557431395749596,7078.5337161512034,2.6841717171802683E-003,101.82125962014251,186.16173681078166,222.78805259149308,278.90420485249592,92.996888875000010,99.005820809588499,-5.4053091490003453,4.0545830015327626E-002,-4.4399446101718354,0.10527355128778672
20240112220000,422.73273473388599,4.3583464552981530,0.49097986517715458,0,-5.7951264108619824,0,0.19193680711327013,2,0.34310704590500601,2,7.4013745023232502,4.5266815944458481,11.288476563041542,1.6562171358925768,1.1491869144154319,0.80795396094031569,0.63769088189788059,3699.9734660243307,5.1351719612237508E-003,103.61765849522791,189.44612688647342,226.71862866716612,283.82481968011388,92.948344547614667,99.269564368667716,-5.3937273609013801,2.9815748961206055E-002,-4.4196941414731441,0.12228773452274241